Wind_Speed
3 4 4 6 5 4 5 4 7 4 5 5 6 4 8 17 12 12 13 14 15 17 20 23 26 25 23 28 30 31 32 31 28 26 24 23 23 20 19 17 18 19 17 16
6 5 10 4 3 6 4 5 5 4 3 5 4 10 5 12 21 19 17 15 15 11 9 16 22 25 26 30 32 32 34 32 31 29 27 26 25 21 16 17 17 18 17 18
5 10 4 5 4 6 5 5 3 6 2 3 0 8 3 6 7 7 14 14 12 14 14 11 16 20 24 28 34 35 37 35 33 30 28 24 19 18 17 18 19 22 18 22
5 7 4 5 7 6 3 3 2 3 3 4 2 4 7 2 5 9 9 11 12 9 9 12 15 22 27 33 34 34 36 35 35 32 31 30 25 21 21 21 18 22 20 20
8 5 4 3 7 6 7 3 2 1 3 1 3 3 7 5 4 6 9 13 13 12 14 14 16 26 31 26 32 33 33 34 34 33 33 34 30 25 19 22 21 22 24 22
8 4 4 7 6 4 3 4 4 4 3 2 4 4 5 6 4 4 1 9 9 5 6 10 10 1 8 20 26 30 33 35 36 35 36 36 32 26 26 22 22 22 23 22
6 5 4 5 2 5 7 6 4 4 5 5 0 6 4 6 9 5 8 11 10 11 10 11 10 11 2 11 19 28 32 35 35 36 37 36 34 30 28 25 26 26 28 29
2 7 2 1 7 6 3 7 5 2 2 4 1 3 3 4 7 8 12 14 14 12 9 8 10 11 11 12 20 23 28 32 36 37 38 38 36 33 31 28 26 28 30 32
3 5 5 1 2 4 1 2 4 6 3 3 1 3 4 4 8 8 15 14 8 7 6 8 7 9 14 16 24 26 23 24 28 29 31 34 34 34 33 33 30 28 29 31
4 1 2 6 6 5 1 3 2 3 3 1 2 3 7 3 5 7 8 12 8 7 8 7 8 22 24 10 14 16 6 8 12 20 28 32 34 37 36 33 33 33 31 29
5 3 6 4 4 2 6 4 4 5 4 5 2 3 4 6 2 7 7 6 10 8 7 7 11 12 6 15 18 20 17 1 9 15 13 22 29 33 37 36 37 36 33 31
3 4 1 3 5 5 3 3 4 5 3 2 3 4 4 4 6 6 7 8 5 8 8 7 7 8 15 21 12 9 15 17 29 9 14 34 35 31 32 34 36 39 37 33
2 4 3 7 6 6 5 4 4 4 3 2 5 4 4 5 9 6 7 6 6 7 7 4 7 13 15 20 11 3 15 26 19 17 11 22 26 27 30 31 32 36 41 40
8 3 5 5 5 2 4 4 2 4 3 4 5 4 2 3 7 5 5 6 7 6 5 4 5 9 15 13 16 12 8 17 22 20 16 15 15 26 32 32 27 35 38 41
4 3 3 4 4 3 4 4 7 4 5 5 6 6 4 6 6 5 5 2 6 5 5 5 4 2 7 10 10 9 5 1 6 10 13 18 20 19 19 23 28 32 36 38
3 3 2 1 3 2 1 7 4 4 5 6 11 6 3 2 3 2 4 3 3 4 5 4 5 6 3 4 5 5 2 3 5 10 14 15 18 18 19 18 20 17 34 42
3 6 3 3 3 5 4 7 5 4 5 6 6 4 4 4 5 4 5 6 6 7 7 8 8 10 7 1 4 6 5 8 11 13 15 16 16 17 19 19 19 19 15 17
6 4 2 2 3 2 5 1 9 11 9 8 9 5 3 8 5 7 6 6 6 6 7 7 10 15 14 13 13 11 8 9 12 14 17 20 20 17 14 13 16 16 17 17
3 5 3 4 3 2 2 3 3 3 3 4 7 4 4 6 3 1 3 3 3 2 3 7 10 13 12 12 12 14 19 18 16 17 17 18 18 17 16 13 12 13 16 18
5 5 5 2 4 6 5 3 4 5 1 2 5 5 4 4 0 5 4 4 7 10 9 9 11 10 11 17 20 19 19 17 20 22 24 24 24 21 18 18 13 9 11 14
3 4 5 3 3 4 5 3 4 3 5 6 5 5 5 3 6 5 5 7 12 14 15 16 18 18 20 24 20 18 18 18 22 27 30 27 25 27 24 23 18 14 11 12
3 4 2 3 3 4 1 3 2 4 1 4 3 3 3 5 5 6 8 8 10 13 18 24 23 23 27 24 23 22 20 23 27 29 26 31 31 30 31 27 23 18 16 14
2 4 4 4 4 3 3 4 2 3 4 2 2 5 7 6 6 8 8 9 10 18 21 26 28 28 30 28 25 20 25 28 29 28 31 34 32 32 29 27 27 24 20 18
4 2 4 4 4 3 4 3 3 1 1 3 3 4 4 6 8 8 8 8 8 17 20 24 24 22 25 29 24 24 28 29 27 29 30 31 31 34 30 27 26 26 22 21
4 3 3 2 3 3 4 1 2 1 3 4 5 4 6 6 8 7 7 8 12 16 19 22 21 24 26 29 27 31 29 26 27 26 26 27 27 28 29 29 27 27 25 23
2 5 3 5 6 4 4 4 5 4 4 5 5 5 6 8 8 7 6 11 14 16 20 21 22 24 27 28 28 28 29 25 26 23 23 24 24 24 24 27 29 26 23 21
Wind_Direction
346 43 256 253 202 211 261 242 262 256 239 148 233 263 205 187 199 207 205 204 202 208 217 203 199 197 194 196 206 207 204 208 207 205 207 215 219 217 216 211 209 209 218 221
16 262 247 248 193 240 237 238 256 292 323 130 236 254 214 187 203 202 197 204 205 194 181 186 196 189 192 194 205 204 207 208 209 210 212 216 219 221 215 208 204 212 216 224
166 243 76 183 265 266 273 237 252 201 357 340 320 309 267 244 216 192 207 200 194 186 184 177 178 180 191 194 203 205 209 210 210 212 212 216 224 227 208 210 216 215 220 225
233 288 266 283 232 149 254 194 264 235 93 222 42 265 304 294 207 195 195 190 191 174 179 183 177 183 190 203 206 208 210 213 212 211 213 211 212 207 215 215 217 214 215 222
252 286 329 312 216 168 225 186 263 76 123 84 315 93 268 346 154 227 209 198 190 184 176 182 186 190 199 197 205 209 211 214 214 214 219 214 216 220 215 215 222 223 225 226
246 246 225 221 240 194 77 91 55 71 87 37 244 143 335 347 301 311 260 201 191 157 73 46 30 356 202 199 202 206 210 215 216 216 219 219 222 224 219 215 214 217 218 224
332 274 258 203 0 8 67 53 351 353 11 218 138 53 269 324 23 26 73 85 91 114 124 119 89 73 3 231 213 208 211 214 217 220 221 225 229 229 225 222 216 217 220 223
200 332 286 224 169 193 163 149 153 244 221 272 263 70 240 350 4 44 79 90 97 106 112 107 121 84 18 298 240 221 214 214 218 221 226 225 230 235 235 231 228 224 223 225
151 268 317 167 108 99 104 244 179 109 359 72 167 84 45 4 74 58 77 77 71 63 76 139 112 8 344 314 246 227 229 218 218 223 229 231 232 241 242 236 235 234 233 233
217 20 342 317 51 17 129 168 1 9 143 217 291 166 168 243 115 120 78 90 72 61 59 39 347 34 346 299 226 207 230 247 250 241 230 232 234 237 243 246 242 239 239 238
168 99 300 42 25 262 12 14 35 117 110 157 170 274 226 185 213 114 104 89 108 106 81 48 36 27 357 78 127 148 162 122 315 312 304 263 247 248 247 244 248 249 242 242
344 128 263 162 311 319 67 117 106 105 261 86 137 266 329 135 55 83 82 90 72 82 73 68 86 94 64 71 102 169 195 226 248 275 355 282 279 260 255 251 246 249 248 243
179 19 10 354 1 349 34 335 105 106 90 203 136 242 7 51 79 80 106 89 83 84 88 78 68 63 72 72 90 172 215 203 252 275 303 298 284 286 271 257 260 256 252 249
79 91 139 187 222 227 322 318 41 104 116 181 212 183 145 135 129 146 127 119 116 121 121 108 74 79 85 83 88 94 200 254 275 288 294 300 310 323 271 255 258 263 256 250
88 123 151 216 258 272 250 299 311 209 217 170 187 143 190 175 168 162 144 148 130 135 132 117 107 125 126 122 107 108 126 235 293 297 325 344 346 340 327 286 271 268 262 256
36 189 179 268 233 306 303 340 26 76 117 71 115 101 183 179 131 156 172 194 71 61 77 133 163 161 170 128 139 154 185 278 302 315 322 333 337 347 348 340 352 321 285 263
126 141 103 257 334 346 11 333 341 75 28 126 139 186 142 117 83 91 71 64 39 12 4 6 8 2 4 340 232 301 298 296 300 304 311 317 319 324 332 336 347 342 312 284
137 107 95 192 17 69 249 19 75 82 53 57 74 67 84 110 109 80 72 82 50 26 9 354 348 341 337 339 340 336 322 311 309 307 309 313 314 298 306 319 326 331 326 311
146 127 87 126 144 301 258 305 355 103 358 360 106 77 74 153 112 43 118 122 152 207 270 290 306 317 308 306 308 314 313 310 307 306 306 310 316 303 284 292 309 328 326 318
77 75 116 130 142 201 226 215 212 121 269 208 130 124 108 127 151 256 221 222 231 228 242 264 295 286 284 297 288 288 289 291 301 306 307 301 299 303 301 285 281 289 309 307
30 26 141 148 172 291 248 285 150 153 235 174 179 174 177 197 209 232 287 289 271 274 283 290 291 278 290 302 296 274 270 272 291 303 302 292 294 297 300 298 275 273 279 287
153 129 174 99 101 240 352 26 160 206 103 160 177 184 239 238 260 255 262 264 283 289 297 301 296 286 296 297 293 283 265 284 295 301 297 295 293 293 291 286 283 270 266 268
33 178 170 139 212 263 327 115 104 126 141 215 233 237 239 248 262 274 271 280 279 285 289 295 290 289 295 299 292 273 285 297 296 296 296 294 294 296 290 283 286 277 271 258
336 127 88 92 323 79 86 54 75 92 247 280 265 279 256 252 270 264 275 277 277 287 288 293 290 282 284 293 286 287 296 297 296 294 292 289 290 292 288 280 282 278 268 257
203 57 114 54 278 0 320 184 210 289 296 295 298 262 267 286 285 264 265 278 288 293 298 303 295 293 286 290 291 296 293 296 290 286 280 274 278 280 279 279 277 274 271 262
185 165 140 215 204 170 220 215 206 240 257 274 231 269 272 254 261 277 283 291 290 293 301 298 294 292 292 291 288 293 295 297 287 276 275 270 270 269 269 273 279 278 272 271
Height
766 783 793 783 780 779 782 789 793 763 748 756 766 766 762 754 760 763 763 763 764 764 761 770 776 782 785 790 793 796 800 804 808 811 814 817 817 819 821 824 826 828 830 832
782 793 769 767 773 779 783 790 783 764 750 759 762 766 755 754 750 749 754 757 758 762 764 768 773 779 782 785 789 793 796 800 804 807 811 814 815 817 818 821 823 825 827 829
790 771 760 768 771 779 778 775 771 777 761 757 763 777 759 749 744 748 746 747 752 757 761 766 771 776 779 782 785 789 792 796 800 803 808 812 815 817 818 819 820 822 824 826
778 760 760 766 775 774 782 757 759 766 778 800 768 815 772 751 753 750 749 749 750 755 759 762 767 770 774 775 781 786 791 794 798 801 804 807 808 810 812 816 818 820 822 824
778 765 766 767 761 756 768 752 757 762 784 786 784 804 780 760 758 756 750 745 746 748 752 757 760 764 767 776 779 784 789 794 797 800 802 804 805 807 809 813 816 819 821 821
765 746 750 755 745 745 745 756 775 787 795 816 791 799 798 791 772 760 745 744 745 750 758 766 770 776 779 780 781 783 786 790 793 797 800 802 803 805 807 809 812 815 818 820
771 758 743 737 751 748 763 788 824 815 829 819 794 805 811 783 769 762 752 747 750 750 756 760 768 776 781 785 784 783 784 786 792 796 798 801 803 804 806 807 808 810 813 816
796 798 751 735 749 764 764 782 821 820 830 818 791 814 805 776 770 764 756 755 753 755 758 762 764 772 778 784 785 785 783 786 789 795 797 798 802 804 804 805 806 807 808 810
798 786 745 736 738 746 767 783 773 808 813 817 809 797 782 778 777 773 765 765 767 762 762 759 761 765 768 773 777 782 787 789 792 797 802 801 799 803 801 802 804 805 806 806
768 782 757 748 740 745 753 759 789 806 816 818 814 805 813 791 786 781 781 777 774 767 765 762 756 752 767 771 772 781 792 795 798 798 790 793 795 795 797 799 799 800 801 803
767 774 773 760 771 775 775 783 789 798 810 828 831 817 789 787 781 786 784 780 778 775 772 772 773 775 779 771 771 776 778 784 789 789 772 784 792 793 793 791 793 795 796 797
763 785 793 780 763 763 760 775 795 813 805 822 823 818 788 785 785 785 787 784 782 778 777 781 786 786 780 776 776 778 773 765 775 785 780 780 791 787 785 784 784 787 789 790
760 798 814 797 787 774 781 775 778 801 811 814 822 819 785 786 789 789 788 788 787 785 787 788 788 785 784 783 779 776 774 772 778 788 790 791 789 784 781 777 774 776 778 781
764 804 808 825 806 794 789 782 778 791 815 813 813 805 796 793 793 791 791 789 790 791 791 790 789 786 785 785 784 782 784 784 782 785 786 787 783 775 772 768 764 766 767 769
773 801 796 795 794 788 787 783 782 785 788 795 796 803 796 793 791 791 792 791 791 792 791 790 789 790 790 788 787 786 787 785 784 783 781 777 773 771 766 762 758 758 760 758
781 802 795 797 791 790 786 787 778 780 788 792 792 799 787 785 785 790 791 793 792 789 788 789 791 791 789 786 785 783 782 782 781 778 775 772 771 767 762 758 758 754 756 757
784 801 809 809 800 793 807 796 790 789 786 789 803 794 789 792 792 793 795 793 793 791 790 788 788 787 787 786 786 784 782 780 777 774 772 769 767 764 759 752 754 752 746 738
791 801 811 815 805 822 804 784 784 790 792 790 792 792 790 797 796 795 794 796 796 794 792 790 788 787 784 782 780 779 779 778 776 773 770 767 765 761 758 753 749 748 742 732
773 797 816 819 824 810 797 789 788 793 804 795 799 796 794 795 794 797 792 791 791 790 789 788 786 784 782 780 777 775 772 771 770 768 766 763 760 758 757 753 748 743 737 731
781 784 796 822 815 825 801 784 779 786 820 792 793 795 794 796 810 803 789 788 788 786 785 784 782 780 777 775 773 771 768 765 761 759 758 757 755 752 750 750 748 744 740 736
797 799 805 817 813 810 787 778 777 807 812 791 792 793 795 798 795 787 783 783 781 779 777 776 775 774 771 769 767 765 763 760 756 753 750 748 748 745 744 742 742 740 737 735
794 802 807 815 815 813 780 780 793 796 790 789 789 789 789 787 785 784 782 779 776 773 771 769 767 765 764 763 761 758 755 753 750 747 744 741 740 739 736 734 733 733 732 731
798 794 799 802 808 793 786 786 785 787 790 788 788 786 786 785 782 779 777 774 771 770 767 765 762 756 753 753 752 750 748 746 743 739 735 732 728 726 726 725 725 726 725 724
784 784 796 799 796 791 787 785 784 784 785 784 783 783 782 783 780 777 774 772 769 766 763 760 757 752 747 744 744 743 741 739 737 734 730 726 722 717 714 716 717 716 716 716
789 784 799 803 795 793 790 786 785 784 784 783 782 781 779 778 776 773 770 767 765 763 760 756 753 747 741 738 736 734 731 731 729 727 724 721 718 714 709 706 706 707 707 707
785 789 798 802 789 790 789 785 784 784 782 780 780 778 776 774 771 768 767 765 762 758 754 751 747 743 737 733 729 725 724 723 721 719 716 713 710 707 704 701 697 699 700 699